Wind_Speed
6 5 4 4 5 6 5 4 3 3 2 2 2 3 3 3 4 5 5 5 6 7 7 7 7 7 7 6 6 6 6 5 5 4 5 5 5 5 5 5 6 6 6 6
7 6 6 6 5 4 5 5 5 4 3 3 3 3 3 3 4 5 6 6 6 7 7 7 7 7 7 7 7 7 6 6 6 6 6 5 5 6 6 7 7 7 8 8
10 9 8 7 6 5 6 6 7 6 4 4 4 4 5 5 6 6 6 7 7 8 8 9 8 8 8 8 8 8 7 7 7 7 7 6 7 7 7 8 8 9 9 9
11 11 10 8 8 7 7 8 7 7 6 6 6 6 7 5 5 5 7 8 8 8 9 9 9 9 10 9 9 9 8 8 9 9 8 8 8 9 9 10 10 10 10 11
12 12 12 10 10 10 10 10 9 9 8 8 7 7 8 7 6 6 7 8 8 8 9 9 10 11 11 11 11 10 10 10 10 10 10 10 10 10 11 12 12 12 12 12
14 14 13 12 12 12 12 12 11 11 10 10 9 9 9 9 9 9 9 9 9 9 10 11 11 12 12 12 12 12 11 11 11 12 12 12 12 13 13 13 14 14 14 14
15 15 14 14 14 14 12 11 11 11 12 13 12 11 11 12 11 12 11 11 11 12 12 12 13 13 13 13 14 13 12 12 12 13 13 13 13 14 14 15 15 15 15 15
16 17 17 16 16 15 14 13 13 13 13 14 15 14 14 14 13 13 13 13 13 14 14 14 14 14 14 14 15 15 14 14 14 13 14 14 15 15 15 16 16 16 16 16
17 18 18 17 17 17 16 15 15 16 16 15 16 17 17 16 15 15 15 15 15 15 15 15 14 15 15 15 16 16 16 15 15 15 15 16 16 16 16 16 16 16 17 17
18 19 19 19 18 18 18 18 17 17 17 17 18 17 18 18 17 16 16 16 16 16 16 16 16 16 17 16 16 16 16 16 16 17 17 17 17 17 17 17 17 17 18 18
19 20 20 20 20 20 20 20 19 19 19 18 19 18 19 18 18 17 17 18 18 17 17 17 17 17 17 17 17 17 17 17 17 18 18 17 18 18 18 17 17 18 19 19
20 20 21 22 22 21 21 20 20 20 20 20 19 20 20 19 19 19 19 18 18 18 19 19 19 19 18 18 18 18 18 18 18 18 18 17 17 18 18 18 19 19 20 20
21 21 20 20 22 23 22 21 20 21 21 20 19 21 21 20 20 20 20 20 20 20 20 20 20 20 19 19 19 19 19 19 19 19 19 18 18 18 18 19 19 20 20 20
23 22 21 20 21 23 23 22 21 21 21 21 21 21 21 21 21 20 21 21 21 21 21 21 21 21 20 19 19 19 20 20 20 20 20 20 19 20 19 19 20 20 21 21
24 24 24 23 23 23 24 24 23 23 23 23 23 22 22 22 22 21 21 20 20 20 21 21 22 22 21 21 20 20 20 21 21 21 21 20 20 21 20 20 20 20 21 21
25 26 25 25 25 24 25 25 25 25 25 25 25 24 23 23 22 22 22 21 21 21 21 21 21 21 21 22 22 21 21 21 22 22 21 21 22 22 21 21 20 20 20 20
25 26 26 26 25 26 26 25 26 27 26 26 26 26 25 25 24 24 24 23 22 23 23 22 21 21 21 22 22 22 22 22 22 22 22 22 23 23 22 22 21 20 20 21
27 26 26 25 26 27 26 26 26 26 26 26 27 26 26 26 26 26 26 25 24 24 24 23 22 22 22 22 22 23 23 23 22 23 23 24 24 24 23 23 22 22 21 21
28 27 26 26 26 28 27 26 26 27 27 27 27 27 27 26 27 27 26 25 25 24 24 23 22 22 22 23 23 23 23 23 23 23 23 24 25 24 23 23 23 22 22 21
28 28 28 28 27 27 27 26 26 27 28 27 28 28 28 28 28 27 26 26 26 25 24 23 23 22 23 24 24 24 23 23 24 24 23 23 24 23 23 22 22 22 22 22
28 28 28 29 29 28 27 26 27 28 28 28 28 28 28 29 29 28 28 28 27 26 25 25 24 24 24 24 24 25 25 24 24 24 23 22 23 23 23 23 23 23 23 23
28 28 28 28 28 28 28 28 28 28 28 28 28 28 29 29 29 30 29 28 27 26 26 26 25 25 25 25 25 25 25 24 25 24 24 24 24 24 24 24 24 25 24 24
28 28 28 28 29 29 29 29 29 28 28 28 28 29 29 29 29 30 29 28 27 27 26 27 27 26 26 26 26 26 26 25 25 25 25 25 25 25 25 25 24 24 24 25
29 28 28 28 29 29 29 29 29 28 28 28 27 27 28 28 28 29 29 29 28 27 27 27 27 28 27 27 27 27 27 26 25 25 26 26 25 25 25 25 24 24 23 24
28 27 27 28 28 28 28 28 28 28 28 27 27 26 26 27 28 29 29 29 28 28 28 28 28 28 27 27 27 28 28 27 27 26 26 25 25 25 25 24 24 24 24 23
28 28 28 28 28 28 28 28 27 27 27 27 26 27 26 27 27 27 28 28 28 28 29 28 28 27 27 27 27 27 27 27 26 26 25 25 25 25 25 25 24 24 24 24
Wind_Direction
185 190 194 210 210 207 216 221 241 254 265 279 290 308 327 346 340 332 329 328 331 341 346 340 338 336 330 331 328 318 312 310 305 291 288 280 279 274 275 277 275 276 274 271
202 208 220 230 233 235 232 233 248 264 272 278 288 291 311 321 318 320 325 326 326 329 334 333 328 325 320 320 323 317 313 309 306 300 295 278 276 275 273 272 276 278 276 274
213 223 230 233 239 252 252 250 253 261 278 274 279 289 294 314 315 312 319 322 325 325 327 330 329 324 319 314 311 310 303 302 302 298 293 284 284 281 279 279 278 277 276 276
227 232 238 241 245 253 260 257 257 257 272 287 281 294 290 290 302 305 311 314 314 318 322 326 326 325 323 318 309 301 298 299 299 298 292 289 286 284 284 282 281 281 281 279
238 240 243 248 252 254 259 262 263 265 271 279 281 287 290 278 284 292 299 306 307 309 314 320 321 320 318 315 310 302 299 299 299 297 294 291 288 287 286 286 284 284 283 282
245 249 250 252 255 257 261 268 270 273 277 280 281 282 287 281 274 277 286 294 297 304 308 312 315 315 315 313 309 307 303 300 295 294 294 292 288 286 285 284 283 282 282 280
253 255 255 255 257 257 259 269 277 280 281 280 281 279 281 280 281 281 284 288 291 296 302 306 308 311 311 310 306 304 302 299 296 293 293 293 290 289 288 286 286 285 283 281
252 258 261 258 256 257 257 260 262 266 270 276 282 280 281 280 280 280 281 286 288 291 295 299 304 307 309 308 308 304 302 300 297 294 291 291 290 289 290 288 285 284 283 282
248 255 259 258 257 257 261 259 262 265 269 272 275 278 278 279 279 279 281 282 285 289 291 292 295 299 303 305 305 305 303 301 299 294 291 291 290 289 288 288 286 282 281 281
253 257 259 258 258 258 259 262 265 263 266 268 274 281 279 279 282 282 280 282 282 284 287 288 291 295 298 300 303 303 302 301 299 297 295 293 291 290 287 287 287 283 281 280
253 256 259 258 257 261 263 262 262 264 264 266 271 274 276 278 280 280 282 281 281 281 282 285 289 293 296 297 299 300 299 299 298 298 295 295 296 293 286 286 287 285 283 281
254 255 256 258 258 259 261 262 262 264 267 267 267 270 275 276 277 279 280 280 279 279 280 282 286 289 293 295 296 296 297 298 297 297 298 299 297 295 290 285 287 287 285 282
253 254 258 262 264 262 260 260 260 261 264 267 268 270 274 277 276 278 279 279 277 276 277 279 280 284 288 291 294 294 295 295 295 295 298 300 299 296 292 288 287 287 286 284
252 254 253 253 257 264 263 261 260 261 261 265 267 268 271 275 276 278 279 277 277 275 276 275 276 279 282 287 291 294 295 295 294 295 296 298 298 297 292 289 287 287 286 285
254 256 257 258 260 260 261 262 261 262 262 262 265 267 268 272 275 278 280 280 279 278 277 276 276 279 282 285 287 290 293 293 293 294 294 295 295 294 292 291 289 288 289 287
256 259 260 261 262 262 261 259 259 260 261 263 265 266 268 271 273 276 279 280 282 282 280 279 277 277 281 283 283 287 290 292 293 294 295 294 295 293 292 291 289 288 289 289
258 260 261 263 264 264 262 261 260 260 261 263 265 267 269 270 272 274 276 277 279 281 280 278 278 279 279 281 283 284 287 290 293 294 295 295 295 294 291 291 287 286 287 286
258 260 262 263 263 262 264 265 263 263 262 262 263 264 266 268 271 273 275 276 276 278 279 276 274 275 276 278 281 284 286 288 291 293 294 296 295 295 291 289 290 288 286 286
256 259 261 263 264 266 266 266 265 265 265 263 264 265 266 267 270 271 272 273 274 275 276 275 273 272 275 278 281 283 286 287 289 291 292 295 295 295 292 292 291 288 286 287
256 258 259 262 264 266 267 268 267 268 267 267 267 267 266 267 269 270 270 270 271 272 273 273 273 273 276 277 279 279 282 286 287 288 289 292 294 296 296 294 293 290 287 287
254 256 258 261 264 266 268 268 268 268 269 269 269 269 269 268 269 268 269 269 269 271 269 269 270 273 275 277 278 280 281 283 286 287 289 290 292 293 295 295 296 294 292 291
254 257 259 261 263 265 267 269 268 269 270 270 270 270 271 270 269 269 269 269 268 269 268 267 268 271 274 276 278 280 282 282 283 285 287 288 289 291 292 293 295 294 294 293
253 255 259 261 263 264 265 268 268 270 272 272 272 271 271 271 270 269 268 267 267 268 266 266 267 270 272 274 277 279 280 281 283 284 286 287 289 290 289 291 293 293 293 293
255 255 258 261 263 264 267 268 269 270 272 273 274 273 272 271 269 268 266 266 266 266 266 265 265 268 270 272 274 277 279 281 283 285 285 286 288 289 289 288 290 291 290 291
255 257 258 261 263 264 266 267 269 270 272 273 272 272 271 271 270 268 266 266 265 266 267 267 267 266 268 270 271 275 278 280 283 284 286 288 288 289 289 289 287 287 289 291
256 258 259 261 263 266 267 269 270 271 272 271 270 269 270 271 270 269 268 267 267 267 266 266 266 266 267 268 270 273 276 279 282 285 287 288 289 289 290 290 288 287 288 289
Height
5912 5914 5914 5914 5914 5915 5915 5915 5915 5915 5914 5914 5913 5912 5912 5911 5910 5908 5907 5906 5904 5903 5901 5900 5898 5896 5895 5893 5892 5890 5889 5888 5887 5886 5886 5885 5884 5884 5883 5883 5882 5881 5881 5880
5912 5912 5913 5913 5913 5913 5914 5914 5914 5914 5913 5913 5912 5912 5911 5910 5909 5908 5906 5905 5904 5902 5901 5899 5897 5896 5894 5892 5891 5889 5888 5887 5886 5885 5884 5883 5883 5882 5881 5881 5880 5879 5879 5878
5910 5911 5911 5911 5912 5912 5913 5913 5913 5913 5912 5912 5912 5912 5911 5909 5908 5907 5905 5904 5903 5902 5900 5898 5897 5895 5893 5891 5890 5888 5887 5886 5885 5884 5883 5882 5881 5880 5880 5879 5878 5877 5876 5876
5907 5908 5909 5909 5910 5910 5911 5911 5911 5911 5911 5911 5911 5910 5909 5908 5907 5905 5904 5903 5901 5900 5899 5897 5895 5893 5892 5890 5888 5886 5885 5884 5883 5882 5880 5880 5879 5878 5877 5876 5875 5874 5873 5873
5904 5905 5906 5907 5908 5908 5908 5908 5908 5908 5908 5909 5909 5908 5909 5906 5905 5904 5902 5901 5900 5898 5897 5896 5894 5892 5890 5888 5886 5884 5883 5882 5881 5880 5879 5878 5877 5876 5875 5874 5873 5871 5870 5869
5901 5902 5903 5904 5904 5905 5905 5906 5906 5906 5906 5907 5906 5906 5906 5904 5902 5901 5900 5899 5897 5896 5895 5893 5892 5890 5888 5886 5885 5883 5881 5880 5879 5877 5876 5875 5874 5873 5872 5871 5869 5868 5867 5866
5898 5899 5899 5900 5901 5901 5902 5903 5905 5905 5905 5905 5903 5902 5903 5900 5899 5898 5897 5896 5895 5894 5892 5891 5889 5887 5886 5884 5882 5880 5879 5877 5876 5874 5873 5872 5871 5869 5868 5867 5866 5864 5863 5862
5896 5897 5896 5896 5897 5898 5899 5900 5902 5903 5903 5903 5900 5899 5899 5896 5896 5895 5894 5893 5892 5891 5889 5888 5886 5885 5883 5881 5879 5877 5876 5874 5872 5871 5870 5868 5867 5866 5864 5863 5861 5860 5858 5857
5892 5893 5892 5892 5893 5894 5894 5895 5896 5897 5897 5897 5897 5895 5894 5892 5892 5891 5891 5890 5889 5887 5886 5884 5883 5881 5880 5878 5876 5874 5872 5870 5869 5867 5866 5864 5863 5861 5860 5858 5857 5855 5854 5853
5887 5888 5888 5888 5888 5889 5890 5891 5891 5892 5892 5893 5893 5891 5890 5888 5888 5887 5886 5885 5884 5883 5882 5881 5879 5878 5876 5874 5872 5870 5868 5866 5865 5863 5862 5860 5858 5856 5855 5853 5852 5850 5849 5848
5881 5883 5883 5883 5883 5884 5885 5885 5885 5886 5887 5888 5889 5890 5885 5884 5883 5882 5882 5881 5880 5879 5878 5876 5875 5873 5871 5870 5868 5866 5864 5862 5861 5859 5857 5855 5853 5852 5850 5848 5847 5845 5844 5842
5875 5877 5878 5878 5878 5878 5879 5879 5880 5882 5881 5881 5882 5884 5879 5878 5877 5877 5876 5876 5875 5874 5873 5871 5870 5869 5867 5865 5863 5862 5860 5858 5856 5854 5852 5850 5848 5846 5845 5843 5841 5840 5838 5837
5870 5871 5872 5873 5874 5873 5872 5873 5874 5875 5875 5875 5877 5878 5874 5873 5872 5871 5871 5870 5869 5868 5867 5866 5865 5863 5862 5860 5858 5857 5855 5853 5851 5849 5847 5845 5843 5841 5839 5837 5835 5834 5832 5831
5863 5864 5867 5869 5868 5867 5866 5867 5867 5868 5870 5870 5870 5870 5868 5867 5866 5866 5865 5864 5864 5863 5862 5860 5859 5858 5856 5855 5853 5851 5850 5848 5846 5844 5842 5840 5838 5835 5833 5831 5829 5828 5826 5824
5856 5857 5858 5859 5860 5860 5860 5861 5861 5861 5862 5863 5863 5862 5862 5861 5860 5860 5859 5858 5857 5856 5855 5854 5853 5852 5850 5849 5848 5846 5844 5843 5841 5839 5837 5834 5832 5829 5827 5825 5823 5821 5819 5818
5849 5850 5851 5852 5852 5852 5853 5853 5854 5854 5855 5855 5855 5855 5855 5854 5854 5853 5853 5852 5851 5850 5849 5848 5847 5846 5845 5843 5842 5840 5839 5837 5835 5833 5831 5829 5826 5823 5821 5819 5817 5815 5813 5811
5841 5843 5844 5845 5845 5845 5845 5846 5846 5847 5847 5848 5847 5848 5847 5847 5847 5846 5846 5845 5845 5844 5842 5842 5841 5840 5839 5837 5836 5834 5833 5831 5830 5827 5825 5823 5820 5818 5815 5813 5811 5809 5807 5805
5834 5835 5836 5837 5838 5837 5840 5839 5839 5839 5839 5839 5839 5839 5839 5839 5839 5839 5838 5838 5837 5837 5836 5835 5834 5833 5832 5831 5830 5828 5827 5825 5823 5821 5819 5817 5814 5811 5809 5807 5805 5802 5800 5799
5826 5827 5828 5829 5829 5829 5831 5831 5831 5830 5830 5831 5831 5831 5831 5831 5831 5830 5830 5830 5829 5829 5828 5827 5827 5826 5825 5824 5823 5822 5820 5819 5817 5815 5813 5810 5808 5805 5803 5801 5798 5796 5794 5792
5818 5819 5821 5821 5821 5822 5824 5823 5822 5823 5822 5823 5822 5822 5823 5823 5823 5823 5822 5821 5821 5821 5820 5820 5819 5819 5818 5817 5816 5815 5814 5812 5810 5808 5806 5804 5801 5799 5797 5794 5792 5789 5787 5785
5810 5810 5811 5812 5812 5814 5815 5814 5814 5816 5815 5814 5814 5813 5814 5814 5814 5814 5813 5813 5812 5812 5812 5812 5812 5811 5811 5810 5809 5808 5807 5805 5803 5801 5799 5797 5795 5793 5790 5788 5785 5783 5780 5778
5802 5803 5803 5804 5805 5807 5806 5805 5806 5806 5805 5805 5805 5805 5804 5804 5804 5804 5804 5804 5804 5804 5804 5803 5804 5804 5803 5802 5801 5800 5799 5798 5796 5794 5792 5790 5788 5786 5784 5781 5779 5776 5773 5771
5793 5795 5795 5797 5798 5797 5796 5796 5796 5796 5796 5796 5796 5796 5795 5795 5795 5795 5795 5794 5795 5795 5795 5795 5795 5795 5795 5794 5793 5792 5791 5790 5788 5786 5785 5783 5781 5779 5776 5774 5772 5769 5767 5765
5784 5786 5787 5787 5787 5788 5788 5788 5788 5788 5788 5787 5787 5787 5786 5785 5785 5785 5785 5785 5785 5786 5786 5786 5786 5786 5786 5785 5785 5784 5783 5782 5780 5779 5778 5776 5774 5771 5769 5767 5765 5763 5761 5758
5775 5777 5778 5778 5779 5779 5779 5779 5779 5779 5779 5778 5778 5778 5777 5777 5776 5776 5776 5776 5776 5777 5777 5777 5777 5777 5777 5777 5776 5776 5775 5774 5773 5771 5770 5768 5766 5764 5762 5760 5758 5756 5754 5752
5767 5768 5769 5770 5770 5771 5771 5771 5771 5771 5770 5770 5770 5769 5769 5768 5767 5767 5767 5767 5767 5767 5768 5768 5768 5768 5768 5768 5768 5767 5767 5766 5764 5763 5762 5760 5759 5757 5755 5752 5750 5748 5747 5745